RH
94 100 100 100 100 100 100 97 93 100 100 100 100 100 98 98 94 93 87 72 66 58 59 74 63 75 63 59 59 65 78 67 44 40 38 38 48 62 62 48 57 72 77 55 46 25 11 10 11
38 90 100 100 100 100 100 100 100 100 100 100 100 100 98 95 100 100 97 81 74 63 84 87 77 74 81 75 75 83 69 59 38 38 52 62 63 56 48 55 71 78 69 55 30 13 12 12 13
22 64 88 100 100 100 100 100 100 100 100 100 100 100 100 100 100 99 92 84 96 95 96 79 80 85 83 71 73 76 66 47 43 64 73 72 64 70 80 81 86 72 62 36 16 12 12 13 12
25 29 95 100 100 96 100 100 100 100 100 100 100 100 100 100 100 100 94 88 100 100 93 83 80 90 82 94 82 74 62 56 66 73 94 76 82 77 73 93 87 68 48 23 13 14 14 14 14
26 25 32 100 100 100 100 100 100 100 100 100 100 100 97 99 92 91 90 83 86 71 72 95 100 83 87 93 73 70 70 66 86 100 93 92 79 85 94 84 74 57 32 18 18 17 16 15 15
25 28 25 89 100 100 100 100 100 100 100 100 100 100 100 96 94 92 99 100 100 100 100 100 84 89 75 82 85 83 80 84 100 98 97 85 94 94 87 73 58 39 27 22 22 20 19 17 16
31 36 31 40 100 100 100 100 100 100 100 100 95 99 100 100 100 100 98 96 97 92 90 97 96 98 95 92 100 98 99 100 82 100 95 92 100 94 80 66 42 26 18 19 21 20 16 14 14
63 52 44 37 72 100 100 100 100 100 100 100 100 100 100 100 100 95 92 92 100 100 92 85 100 100 98 96 89 100 100 96 99 99 100 100 92 84 81 64 50 30 20 17 18 18 15 15 15
100 100 100 72 90 100 100 100 100 100 100 100 100 100 100 100 96 84 70 76 92 100 100 100 100 100 99 98 94 100 100 100 100 100 100 96 94 100 97 84 69 62 53 21 15 15 16 18 22
88 99 100 100 98 100 100 100 100 100 100 100 98 99 99 94 98 99 100 100 100 100 100 100 100 100 100 100 100 100 100 100 100 100 96 86 96 90 90 93 100 74 37 17 18 20 20 22 29
89 98 100 100 100 100 100 100 100 100 100 100 100 96 100 100 100 100 88 97 100 100 100 100 100 100 100 100 100 98 100 100 100 100 93 99 96 89 80 92 82 48 22 19 23 24 25 27 33
84 100 100 100 100 100 100 100 100 100 100 100 100 100 100 100 100 100 100 100 100 100 100 100 100 100 100 100 100 100 100 100 100 100 100 100 99 94 81 73 70 32 23 32 39 39 36 33 32
100 100 100 100 100 100 99 100 100 100 100 100 100 100 100 100 100 100 92 99 100 100 100 100 100 100 100 100 100 100 100 100 100 100 100 100 100 100 100 84 40 21 22 31 38 44 47 40 33
100 100 100 100 100 100 100 100 100 100 100 100 100 100 100 100 97 100 87 98 100 100 100 100 100 100 100 98 100 100 100 100 100 99 81 90 100 100 100 38 20 20 26 32 41 45 50 45 46
93 100 100 100 100 100 100 100 100 100 100 100 100 100 100 100 100 100 100 93 97 99 100 100 89 100 100 100 94 58 74 70 50 65 41 46 50 72 28 19 20 20 20 25 33 42 46 49 54
94 100 100 100 100 100 100 100 100 100 100 100 99 100 100 100 100 100 99 98 67 76 82 88 86 90 96 91 87 89 50 41 34 50 44 41 50 23 19 20 22 20 27 44 50 47 43 38 39
88 90 91 93 95 87 91 100 100 100 100 100 100 100 92 82 100 97 76 67 55 70 83 99 100 100 100 100 100 83 42 59 72 33 30 20 17 18 20 21 22 22 52 61 52 44 40 39 37
73 75 76 77 75 75 75 92 98 96 94 92 93 67 52 48 62 57 48 44 46 51 57 76 98 100 100 100 100 88 41 21 17 17 16 17 18 19 20 21 21 33 54 59 54 49 45 44 45
57 71 77 73 56 50 54 53 50 54 52 48 46 41 41 40 39 37 37 38 40 37 32 51 92 63 85 82 53 21 17 16 16 16 17 18 19 21 22 34 49 54 48 41 41 40 41 43 40
27 28 31 29 28 28 29 32 38 40 44 41 38 34 31 27 24 25 34 39 35 44 47 29 33 27 19 18 17 17 17 17 17 17 18 19 24 38 40 34 31 31 35 37 36 35 34 33 32
24 25 27 32 41 50 55 50 35 31 29 23 19 16 14 18 22 24 27 30 33 30 25 23 21 19 17 17 17 17 16 16 17 21 32 38 35 32 34 36 39 39 33 28 29 30 28 29 33
54 48 48 49 45 37 28 20 16 18 18 17 16 16 16 17 18 19 19 22 22 19 19 17 16 17 17 18 18 18 21 28 34 34 34 34 36 38 37 35 32 32 38 38 37 41 45 44 45
23 24 21 18 17 15 16 17 18 19 19 19 21 21 20 19 19 20 21 21 20 17 15 18 18 16 16 19 26 35 42 44 42 43 50 53 55 56 56 51 42 39 41 43 46 47 47 49 56
18 18 19 19 20 19 19 20 26 26 30 31 30 30 30 29 30 32 29 25 24 23 27 31 30 39 44 49 52 55 52 51 59 69 67 58 52 46 42 45 50 50 50 51 46 48 52 53 44
22 20 18 21 29 30 33 32 36 47 49 51 57 58 58 59 55 50 50 50 46 42 47 61 69 57 57 63 63 56 57 58 54 47 44 49 53 56 56 57 57 53 47 40 40 40 39 34 28
22 36 49 52 49 44 44 43 40 38 39 41 38 38 38 38 42 52 54 52 49 49 53 50 53 72 70 66 64 64 58 60 62 69 72 65 52 49 52 49 45 42 39 37 34 32 27 21 17
58 45 40 39 41 44 44 42 38 36 36 38 40 48 54 56 54 54 55 55 55 57 61 62 60 56 56 58 57 62 65 62 62 55 47 45 48 50 47 42 42 40 36 34 29 25 21 13 8
43 42 41 42 52 56 53 51 48 46 44 42 40 40 38 38 37 40 40 41 43 45 47 48 49 52 56 56 62 56 45 41 41 44 53 55 53 51 47 42 44 40 40 28 21 12 8 6 6
46 45 48 56 53 47 47 40 38 39 40 39 38 39 40 42 43 44 43 41 41 41 41 40 40 42 45 43 42 43 41 45 56 59 53 55 50 44 49 53 48 34 25 14 8 6 6 6 5
54 55 58 55 54 54 44 42 44 40 38 38 38 39 40 46 52 54 52 49 45 40 36 36 39 41 44 41 42 50 64 66 58 55 53 48 55 58 51 39 24 20 11 7 6 6 5 3 3
Wind_Speed
97 96 91 84 86 86 85 86 86 81 76 77 79 79 81 80 83 82 80 82 81 81 80 81 83 83 87 84 84 85 88 92 94 97 98 101 102 100 102 106 104 103 98 88 79 74 64 53 46
96 97 94 88 88 84 82 80 82 80 78 81 81 81 84 84 82 83 81 81 81 82 81 84 85 84 84 86 86 92 93 93 96 96 103 102 102 103 102 103 102 97 85 75 65 59 49 41 37
92 98 96 90 89 88 85 79 80 79 81 81 81 81 81 83 78 80 78 80 81 80 81 84 84 86 88 91 93 92 93 97 99 99 101 101 103 102 102 101 96 83 72 60 53 46 46 41 42
90 90 94 93 84 90 85 79 79 75 75 73 78 83 80 81 78 80 81 81 78 80 83 84 88 90 89 88 91 94 97 100 99 100 97 102 100 103 102 91 73 64 57 51 47 43 46 43 39
91 87 91 95 92 79 83 81 79 79 73 72 74 68 74 77 79 78 78 83 85 88 88 84 83 88 88 92 98 95 99 102 96 97 102 100 100 96 84 70 62 55 47 44 41 40 41 45 46
79 85 87 93 91 84 76 77 79 79 78 73 77 74 72 76 78 78 74 74 77 78 80 82 90 93 98 94 97 98 99 96 95 102 100 102 94 79 65 55 50 46 42 41 43 46 48 50 51
67 79 83 89 92 78 75 76 78 79 81 82 85 78 75 76 74 77 79 81 84 88 86 89 91 89 91 93 89 94 91 93 102 100 93 88 72 63 51 48 43 43 45 47 48 50 52 52 54
61 68 76 82 82 89 89 78 82 77 77 77 76 78 78 79 81 82 81 83 84 84 87 86 87 87 93 93 94 93 96 99 95 89 74 64 62 54 50 45 44 44 46 49 51 55 53 51 52
51 57 63 69 72 78 82 83 83 80 81 81 80 78 82 82 84 87 87 86 81 81 84 87 88 87 86 91 92 96 96 91 81 72 65 58 52 50 50 47 45 45 49 53 53 53 51 50 47
55 58 57 58 58 66 68 84 91 81 82 83 82 84 84 83 84 85 83 81 81 77 77 84 84 84 88 89 90 87 82 78 63 61 56 56 53 53 46 45 49 48 49 46 44 45 48 48 41
53 51 53 55 56 58 62 72 91 86 80 77 76 78 73 83 78 81 90 87 79 70 76 83 86 89 90 90 85 84 78 64 58 54 56 54 55 56 51 48 51 51 53 50 49 49 46 44 47
48 49 54 59 68 69 63 62 65 67 68 71 73 72 73 78 70 71 70 71 74 79 84 88 92 91 90 81 83 73 61 60 53 53 52 51 52 56 56 52 55 55 53 46 48 49 51 51 49
54 62 61 55 58 61 68 67 63 66 69 67 69 70 70 73 73 70 81 84 82 84 86 90 94 92 88 78 73 63 59 56 56 53 56 56 60 60 54 58 57 60 55 53 51 50 53 54 53
66 56 60 59 57 55 60 62 60 57 59 63 64 64 68 67 78 75 85 84 80 82 87 85 84 77 70 69 60 53 51 49 55 58 60 61 65 61 64 61 59 58 55 56 55 55 56 56 55
59 63 62 69 63 63 62 61 68 69 67 68 69 70 72 74 76 80 79 80 81 84 83 74 81 65 55 55 52 53 51 56 60 63 64 62 63 62 63 63 62 61 59 60 60 60 59 57 57
50 59 59 69 63 64 71 64 70 69 69 70 71 75 77 79 82 81 83 83 85 77 69 61 56 53 51 52 52 51 55 61 63 62 65 62 58 61 64 68 71 69 64 63 64 64 63 63 63
44 49 56 61 65 67 71 75 73 67 65 68 70 72 75 78 81 80 79 77 69 59 49 40 40 44 50 57 59 62 65 62 61 65 62 62 62 65 68 70 71 73 69 70 70 71 70 69 69
34 38 44 51 57 60 61 68 66 69 70 71 76 68 70 69 56 56 57 54 48 45 42 36 44 45 54 59 64 66 63 67 69 67 65 66 68 69 71 72 74 72 72 75 76 76 77 77 76
33 35 34 36 35 37 39 44 48 54 58 52 53 48 44 41 43 46 47 47 46 48 48 44 45 49 57 58 64 71 69 70 70 66 67 70 72 74 75 74 74 75 76 77 80 81 82 85 87
30 30 31 33 31 33 36 39 37 32 33 36 39 41 42 42 42 43 44 47 50 47 46 51 54 56 55 60 65 66 66 67 67 68 71 73 75 75 76 76 76 78 81 85 87 88 90 92 94
24 25 26 27 27 28 27 29 31 32 33 36 38 38 35 33 34 37 42 46 50 53 53 52 53 54 57 60 63 64 65 67 69 72 73 75 78 79 79 81 84 87 89 93 96 98 101 103 104
21 23 25 25 24 25 24 26 27 25 27 31 34 32 32 34 37 40 42 46 50 51 50 51 50 53 56 59 62 64 66 67 69 72 75 78 80 82 85 88 92 96 100 104 108 110 112 112 113
22 22 23 25 23 20 20 21 23 26 30 30 32 35 38 41 43 44 48 51 52 52 50 50 53 55 58 61 64 66 68 71 75 77 79 82 86 89 92 97 102 106 108 113 115 117 119 119 122
20 21 21 20 18 15 16 18 22 23 25 28 31 33 35 37 38 42 47 49 48 45 43 51 53 55 58 60 63 67 71 74 76 78 81 85 89 95 99 104 107 111 115 118 119 121 123 125 123
13 11 9 5 3 1 2 4 7 11 16 20 24 28 32 35 38 40 43 45 45 45 46 51 56 58 61 64 67 71 73 76 79 83 87 92 96 101 105 110 114 118 123 124 124 122 122 121 121
6 5 2 3 5 7 8 10 11 14 18 22 26 29 32 36 40 45 47 48 50 52 53 56 59 63 66 69 71 74 76 78 82 87 91 96 103 107 113 116 120 121 126 125 122 121 121 121 122
6 4 3 5 8 11 14 17 19 20 22 25 28 30 31 34 37 41 45 48 50 52 54 56 59 62 66 69 72 74 77 81 87 92 97 103 109 113 118 121 124 127 127 123 121 120 120 121 118
3 4 7 10 10 14 16 17 20 22 25 28 30 32 34 36 39 41 43 45 49 52 56 59 62 63 65 67 71 75 80 85 90 96 102 108 114 120 123 125 127 127 128 124 119 119 117 110 105
7 10 12 13 15 18 21 23 26 29 32 34 36 38 40 42 43 45 47 50 52 54 57 60 62 65 68 72 76 80 84 90 95 102 109 113 119 124 127 130 133 128 120 118 117 111 105 100 95
12 12 14 17 19 22 25 27 31 33 35 38 40 42 44 46 47 48 50 52 54 57 60 62 64 68 71 75 79 85 90 96 104 109 115 121 127 128 127 126 121 115 114 113 109 102 95 89 84
Wind_Direction
233 233 234 237 239 241 245 249 253 248 252 255 255 258 260 264 267 268 271 272 274 276 279 279 279 282 285 286 289 290 293 296 300 299 304 305 308 309 308 310 308 308 306 307 312 314 310 307 302
234 234 235 235 238 239 241 245 247 249 251 252 254 257 260 264 265 266 269 271 274 276 276 279 282 285 286 288 290 293 295 298 299 301 305 305 308 308 309 309 307 306 305 307 310 311 302 297 294
236 235 235 235 236 240 242 243 247 249 251 252 253 255 258 261 261 267 269 272 273 275 278 281 283 284 286 289 291 295 296 300 301 302 305 307 307 308 307 306 305 305 307 308 304 299 293 289 291
235 235 233 234 240 240 241 242 244 246 250 253 254 256 255 258 258 263 265 269 271 275 278 281 282 286 289 289 293 296 299 300 300 303 304 304 306 306 306 304 302 305 305 301 296 292 294 294 298
236 234 233 231 233 236 239 243 245 245 248 250 253 252 255 257 260 263 264 268 272 276 278 282 283 283 289 292 294 296 297 300 302 301 303 305 306 304 301 301 300 301 301 296 297 295 294 298 300
233 232 233 231 233 236 239 240 242 243 246 246 248 250 257 260 262 265 270 271 273 275 277 280 283 288 292 294 294 295 297 297 296 301 303 303 301 299 297 298 298 296 296 293 294 292 294 296 297
228 228 228 228 232 231 236 240 242 241 244 246 249 252 257 261 263 264 268 272 274 277 280 282 288 291 292 293 293 293 293 295 298 299 300 299 297 293 294 294 293 292 298 295 295 293 294 296 298
229 232 230 227 231 233 236 240 237 241 242 247 252 257 258 258 261 267 270 273 275 277 283 285 288 288 291 295 294 292 293 296 296 295 294 290 291 291 291 293 293 294 296 294 292 292 293 295 296
220 225 233 230 236 234 237 239 233 240 245 249 253 254 259 261 266 268 271 273 276 280 281 284 289 290 288 291 294 292 294 295 295 290 290 290 291 292 292 288 289 293 297 294 294 294 294 294 295
225 228 230 233 238 238 239 241 240 245 245 252 258 259 263 265 267 270 272 278 281 283 281 282 285 286 288 288 292 293 292 291 287 287 284 287 285 291 292 294 295 298 297 295 296 295 295 293 289
227 228 230 227 235 242 246 246 244 248 252 259 261 263 267 270 274 275 275 280 281 275 278 282 286 286 288 291 291 292 290 285 282 283 282 285 286 291 289 294 301 299 299 299 297 295 293 289 290
227 228 231 228 232 239 245 245 248 251 256 261 261 263 266 269 275 275 271 273 272 275 282 283 286 286 287 292 293 287 281 279 276 275 281 282 287 292 291 295 300 298 300 295 297 295 292 289 287
223 229 230 236 242 241 241 245 251 254 257 260 262 264 266 270 266 269 273 274 276 281 283 284 285 289 288 289 285 281 279 277 279 284 289 290 291 292 289 296 297 299 295 294 299 298 294 293 291
223 223 230 233 237 239 243 249 252 252 258 261 259 259 260 260 270 274 272 272 278 283 284 288 289 287 287 286 279 279 280 280 281 285 287 287 288 285 292 295 297 296 291 292 294 297 296 293 290
230 227 232 235 239 242 250 249 248 254 256 255 256 261 260 266 268 271 272 278 282 286 285 287 289 283 278 275 278 280 278 279 282 281 284 285 286 285 289 294 296 297 291 291 293 293 292 290 288
238 237 237 235 244 243 240 246 249 254 256 257 263 265 265 268 272 272 275 281 285 283 285 284 285 283 282 279 278 281 280 278 277 278 281 283 283 287 292 294 295 297 296 294 292 291 288 286 285
239 240 239 242 246 248 253 250 256 258 264 265 266 266 271 277 273 275 280 281 280 277 278 271 273 275 275 279 281 283 283 284 283 284 281 283 287 288 290 291 293 295 293 294 293 291 289 289 290
241 244 244 245 247 252 255 254 257 261 269 272 270 281 279 277 277 279 280 277 273 271 268 270 262 260 272 273 275 281 284 283 284 285 285 287 288 290 290 290 290 289 290 289 290 288 287 286 286
241 244 247 248 255 259 260 260 260 263 268 271 272 273 273 273 274 276 277 275 273 270 271 256 255 263 261 270 276 280 282 283 285 286 286 289 290 290 289 289 289 290 290 290 290 289 287 286 285
245 251 255 256 259 263 266 269 272 266 264 263 263 267 270 274 278 278 269 265 267 269 268 270 266 275 276 277 279 281 284 285 286 289 289 289 287 286 286 288 290 291 291 290 288 287 286 284 283
251 256 256 258 256 256 260 271 277 277 272 268 268 270 275 278 274 268 267 271 273 274 274 277 277 278 281 281 283 284 285 287 288 288 288 288 290 292 292 291 291 290 289 290 290 290 291 290 289
247 252 256 258 259 265 265 260 258 265 271 273 276 278 276 277 272 269 272 270 268 275 279 280 284 282 284 285 285 285 285 287 288 289 290 291 292 292 292 293 293 296 297 298 298 298 297 297 296
245 255 262 267 265 257 263 270 273 276 277 281 283 281 278 277 278 277 275 274 275 276 283 286 282 282 283 285 288 291 293 294 296 298 299 299 299 300 300 300 299 299 301 301 301 301 300 298 297
232 238 250 265 279 276 269 262 265 272 279 281 282 284 285 284 283 282 285 289 291 292 287 285 287 287 289 290 293 294 295 297 298 298 298 299 299 299 299 299 300 301 302 303 302 301 300 299 296
243 254 263 268 266 280 289 273 263 273 283 289 290 293 296 298 297 297 298 298 296 294 294 294 292 293 294 294 294 296 298 298 298 298 299 299 299 300 300 301 302 302 302 302 302 300 298 296 294
187 166 174 279 294 301 289 282 284 287 288 288 291 295 298 301 303 302 298 296 297 300 299 297 299 298 296 297 298 298 299 299 299 299 299 299 299 299 301 300 300 302 302 301 301 300 297 296 295
174 185 243 282 300 306 307 308 309 305 300 299 302 302 299 295 295 298 301 301 299 298 297 297 297 298 298 298 299 299 297 297 296 296 296 297 298 300 301 303 304 304 305 304 303 301 299 297 297
235 283 289 288 292 296 295 292 291 294 300 301 300 297 296 296 294 291 294 296 295 297 297 297 296 297 297 297 296 295 294 294 295 297 298 299 300 304 305 306 308 309 308 305 301 299 299 299 297
278 282 281 286 286 288 290 292 299 306 308 306 306 305 306 305 304 303 300 299 300 299 298 297 297 296 295 294 293 294 296 298 299 300 302 306 307 308 309 310 310 308 306 302 301 302 302 300 297
280 283 282 291 303 304 302 309 314 314 314 313 311 308 306 305 303 301 300 299 300 299 300 300 297 295 295 297 300 301 300 302 305 307 310 312 312 312 310 309 309 307 305 304 304 303 301 300 298